Weather History for Savanna, IL

Change the Weather History Date:

Friday, September 13, 2013

  Actual Average (KCWI) Record (KCWI)
Temperature  
Mean Temperature 59 °F -  
Max Temperature 72 °F 77 °F 89 °F (1998)
Min Temperature 47 °F 56 °F 33 °F (1975)
Degree Days  
Heating Degree Days 6    
Growing Degree Days 9 (Base 50)    
Moisture  
Dew Point 39 °F    
Average Humidity 52    
Maximum Humidity 83    
Minimum Humidity 22    
Precipitation  
Precipitation 0.00 in - - ()
Sea Level Pressure  
Sea Level Pressure 30.18 in    
Wind  
Wind Speed 7 mph (NNE)    
Max Wind Speed 10 mph    
Max Gust Speed 17 mph    
Visibility 10 miles    
Events      
Averages and records for this station are not official NWS values.
T = Trace of Precipitation, MM = Missing Value Source: NWS Daily Summary

Daily Weather History Graph

Daily Weather History Graph

Search for Another Location

Airport:

Trip Planner

Search our weather history database for the weather conditions in past years. The results will help you decide how hot, cold, wet, or windy it might be!

Date:

Astronomy

Sep. 13, 2013 Rise Set
Actual Time 6:38 AM CDT 7:13 PM CDT
Civil Twilight 6:10 AM CDT 7:41 PM CDT
Nautical Twilight 5:37 AM CDT 8:14 PM CDT
Astronomical Twilight 5:03 AM CDT 8:48 PM CDT
Moon 3:07 PM CDT (9/13) 12:03 AM CDT (9/13)
Length of Visible Light 13h 30m
Length of Day
12h 34m
First Quarter, 61% of the Moon is Illuminated
Sep 13
First Quarter
Sep 19
Full
Sep 26
Last Quarter
Oct 4
New
Oct 11
First Quarter

Hourly Weather History & Observations

Time (CDT) Temp. Dew Point Humidity Pressure Visibility Wind Dir Wind Speed Gust Speed Precip Events Conditions
12:15 AM 59.9 °F 46.9 °F 62% 30.13 in 10.0 mi North 9.2 mph - N/A   Clear
12:35 AM 59.5 °F 46.6 °F 62% 30.13 in 10.0 mi North 6.9 mph - N/A   Clear
12:55 AM 59.2 °F 46.4 °F 63% 30.14 in 10.0 mi North 8.1 mph - N/A   Clear
1:15 AM 58.1 °F 46.4 °F 65% 30.14 in 10.0 mi North 5.8 mph - N/A   Clear
1:35 AM 57.6 °F 46.4 °F 66% 30.14 in 10.0 mi North 6.9 mph - N/A   Clear
1:55 AM 57.6 °F 46.4 °F 66% 30.15 in 10.0 mi North 5.8 mph - N/A   Clear
2:15 AM 57.2 °F 46.4 °F 67% 30.15 in 10.0 mi North 8.1 mph - N/A   Clear
2:35 AM 56.5 °F 46.4 °F 69% 30.15 in 10.0 mi North 9.2 mph - N/A   Clear
2:55 AM 55.4 °F 46.4 °F 72% 30.16 in 10.0 mi North 6.9 mph - N/A   Clear
3:15 AM 54.5 °F 46.6 °F 75% 30.16 in 10.0 mi North 8.1 mph - N/A   Clear
3:35 AM 53.8 °F 46.4 °F 76% 30.16 in 10.0 mi North 6.9 mph - N/A   Clear
3:55 AM 52.9 °F 46.4 °F 79% 30.17 in 10.0 mi North 5.8 mph - N/A   Clear
4:15 AM 51.8 °F 45.9 °F 80% 30.17 in 10.0 mi North 4.6 mph - N/A   Clear
4:35 AM 51.3 °F 45.5 °F 81% 30.18 in 10.0 mi North 4.6 mph - N/A   Clear
4:55 AM 50.9 °F 45.3 °F 81% 30.18 in 10.0 mi North 5.8 mph - N/A   Clear
5:15 AM 50.0 °F 44.8 °F 82% 30.19 in 10.0 mi North 6.9 mph - N/A   Clear
5:35 AM 49.3 °F 44.2 °F 83% 30.19 in 10.0 mi North 5.8 mph - N/A   Clear
5:55 AM 48.7 °F 43.9 °F 83% 30.19 in 10.0 mi North 6.9 mph - N/A   Clear
6:15 AM 48.2 °F 43.2 °F 83% 30.20 in 10.0 mi North 5.8 mph - N/A   Clear
6:35 AM 47.8 °F 42.6 °F 82% 30.21 in 10.0 mi North 4.6 mph - N/A   Clear
6:55 AM 47.7 °F 42.8 °F 83% 30.22 in 10.0 mi North 4.6 mph - N/A   Clear
7:15 AM 48.6 °F 43.0 °F 81% 30.22 in 10.0 mi NNE 5.8 mph - N/A   Clear
7:35 AM 50.5 °F 43.7 °F 77% 30.22 in 10.0 mi NNE 4.6 mph - N/A   Clear
7:55 AM 51.8 °F 43.0 °F 72% 30.22 in 10.0 mi NNE 6.9 mph - N/A   Clear
8:15 AM 53.2 °F 42.6 °F 67% 30.23 in 10.0 mi NNE 8.1 mph - N/A   Clear
8:35 AM 54.7 °F 42.1 °F 62% 30.23 in 10.0 mi NNE 9.2 mph - N/A   Clear
8:55 AM 55.9 °F 40.5 °F 56% 30.24 in 10.0 mi NNE 9.2 mph - N/A   Clear
9:15 AM 57.4 °F 39.6 °F 51% 30.24 in 10.0 mi NNE 8.1 mph - N/A   Clear
9:35 AM 59.0 °F 37.6 °F 45% 30.24 in 10.0 mi North 9.2 mph - N/A   Clear
9:55 AM 60.3 °F 37.8 °F 43% 30.24 in 10.0 mi NE 9.2 mph - N/A   Clear
10:15 AM 60.6 °F 38.5 °F 44% 30.24 in 10.0 mi ENE 8.1 mph - N/A   Clear
10:35 AM 61.5 °F 38.1 °F 42% 30.24 in 10.0 mi North 9.2 mph - N/A   Clear
10:55 AM 61.5 °F 37.4 °F 41% 30.23 in 10.0 mi NE 4.6 mph - N/A   Clear
11:15 AM 62.4 °F 36.7 °F 38% 30.23 in 10.0 mi North 8.1 mph 17.3 mph N/A   Clear
11:35 AM 64.0 °F 37.0 °F 37% 30.23 in 10.0 mi NNE 6.9 mph - N/A   Clear
11:55 AM 64.2 °F 35.6 °F 35% 30.22 in 10.0 mi NNE 4.6 mph - N/A   Clear
12:15 PM 64.6 °F 37.6 °F 37% 30.21 in 10.0 mi North 5.8 mph - N/A   Clear
12:35 PM 66.2 °F 35.4 °F 32% 30.21 in 10.0 mi NNE 9.2 mph - N/A   Clear
12:55 PM 67.3 °F 33.8 °F 29% 30.20 in 10.0 mi North 4.6 mph - N/A   Clear
1:15 PM 67.6 °F 33.6 °F 28% 30.19 in 10.0 mi NNE 6.9 mph - N/A   Clear
1:35 PM 68.2 °F 34.7 °F 29% 30.19 in 10.0 mi WNW 4.6 mph - N/A   Clear
1:55 PM 69.1 °F 32.9 °F 26% 30.18 in 10.0 mi ENE 5.8 mph - N/A   Clear
2:15 PM 70.0 °F 32.7 °F 25% 30.18 in 10.0 mi NNW 6.9 mph - N/A   Clear
2:35 PM 70.5 °F 31.5 °F 24% 30.17 in 10.0 mi Calm Calm - N/A   Clear
2:55 PM 71.4 °F 31.8 °F 23% 30.16 in 10.0 mi ENE 8.1 mph - N/A   Clear
3:15 PM 71.6 °F 32.0 °F 23% 30.16 in 10.0 mi ENE 5.8 mph - N/A   Clear
3:35 PM 71.1 °F 30.7 °F 22% 30.15 in 10.0 mi NNE 9.2 mph - N/A   Clear
3:55 PM 71.2 °F 31.8 °F 23% 30.15 in 10.0 mi NNE 6.9 mph - N/A   Clear
4:15 PM 71.4 °F 31.6 °F 23% 30.15 in 10.0 mi NE 6.9 mph - N/A   Clear
4:35 PM 71.1 °F 32.0 °F 24% 30.14 in 10.0 mi NNE 9.2 mph - N/A   Clear
4:55 PM 71.4 °F 32.5 °F 24% 30.14 in 10.0 mi NE 10.4 mph - N/A   Clear
5:15 PM 70.9 °F 32.0 °F 24% 30.14 in 10.0 mi NNE 6.9 mph - N/A   Clear
5:35 PM 70.5 °F 32.9 °F 25% 30.14 in 10.0 mi NE 5.8 mph - N/A   Clear
5:55 PM 69.8 °F 32.9 °F 26% 30.14 in 10.0 mi ENE 5.8 mph - N/A   Clear
6:15 PM 68.9 °F 33.4 °F 27% 30.14 in 10.0 mi ENE 3.5 mph - N/A   Clear
6:35 PM 67.5 °F 34.9 °F 30% 30.14 in 10.0 mi NE 5.8 mph - N/A   Clear
6:55 PM 64.8 °F 37.8 °F 37% 30.13 in 10.0 mi NE 4.6 mph - N/A   Clear
7:15 PM 61.7 °F 39.7 °F 44% 30.13 in 10.0 mi NE 3.5 mph - N/A   Clear
7:35 PM 59.5 °F 40.3 °F 49% 30.13 in 10.0 mi ENE 4.6 mph - N/A   Clear
7:55 PM 57.2 °F 41.4 °F 55% 30.14 in 10.0 mi NE 4.6 mph - N/A   Clear
8:15 PM 57.4 °F 39.4 °F 51% 30.14 in 10.0 mi NE 3.5 mph - N/A   Clear
8:35 PM 56.3 °F 39.6 °F 53% 30.16 in 10.0 mi ENE 4.6 mph - N/A   Clear
8:55 PM 54.9 °F 38.8 °F 55% 30.15 in 10.0 mi ENE 4.6 mph - N/A   Clear
9:15 PM 54.3 °F 39.0 °F 56% 30.15 in 10.0 mi ENE 4.6 mph - N/A   Clear
9:35 PM 54.1 °F 38.3 °F 55% 30.15 in 10.0 mi ENE 3.5 mph - N/A   Clear
9:55 PM 52.5 °F 38.5 °F 59% 30.16 in 10.0 mi Calm Calm - N/A   Clear
10:15 PM 51.4 °F 38.7 °F 62% 30.15 in 10.0 mi NE 4.6 mph - N/A   Clear
10:35 PM 52.2 °F 38.7 °F 60% 30.15 in 10.0 mi ENE 3.5 mph - N/A   Clear
10:55 PM 50.9 °F 38.7 °F 63% 30.15 in 10.0 mi NE 4.6 mph - N/A   Clear
11:15 PM 49.8 °F 38.7 °F 65% 30.15 in 10.0 mi NE 3.5 mph - N/A   Clear
11:35 PM 50.0 °F 38.5 °F 65% 30.16 in 10.0 mi NE 3.5 mph - N/A   Clear
11:55 PM 48.2 °F 38.3 °F 69% 30.16 in 10.0 mi NE 3.5 mph - N/A   Clear